Location: Davidschlag
(48.4333°N, 14.2833°E)
Time: 19:50:13
(UTC+00:00)

Cosmos 372 Rocket - Pass Details

Date: 27 February 2020
Orbit: 738 x 768 km, 74.1° (Epoch: 05 April)

Event Time Altitude Azimuth Distance (km) Brightness Sun altitude
Rises 18:29:33 0° 339° (NNW) 3,249 7.7 -18.5°
Reaches altitude 10° 18:31:59 10° 343° (NNW) 2,317 6.8 -18.9°
Maximum altitude 18:37:11 61° 64° (ENE) 869 4.0 -19.7°
Enters shadow 18:39:05 37° 127° (SE) 1,168 4.5 -20.0°
